When you browse on this site, cookies collect data to enhance your experience and personalize the content and advertising you see.
Visit our Privacy Policy to learn more. By continuing to use the site, you agree to this use of cookies and data.
EN

Hourly Weather Tyrgowishte

Today, 11 August, Tuesday

Time Temperature Precipitation Wind Pressure Humidity
00:00 +22°C° 0 mm 1 mps 743 mmHg 51%
01:00 +21°C° 0 mm 1 mps 743 mmHg 52%
02:00 +21°C° 0 mm 1 mps 743 mmHg 54%
03:00 +21°C° 0 mm 1 mps 743 mmHg 55%
04:00 +20°C° 0 mm 1 mps 743 mmHg 56%
05:00 +18°C° 0 mm 0 mps 743 mmHg 56%
06:00 +23°C° 0 mm 1 mps 743 mmHg 50%
07:00 +25°C° 0 mm 1 mps 743 mmHg 43%
08:00 +28°C° 0 mm 1 mps 744 mmHg 36%
09:00 +30°C° 0 mm 1 mps 744 mmHg 33%
10:00 +32°C° 0 mm 2 mps 744 mmHg 30%
11:00 +35°C° 0 mm 2 mps 744 mmHg 27%
12:00 +35°C° 0 mm 2 mps 744 mmHg 27%
13:00 +35°C° 0 mm 2 mps 743 mmHg 27%
14:00 +35°C° 0 mm 2 mps 743 mmHg 27%
15:00 +34°C° 0 mm 2 mps 743 mmHg 28%
16:00 +34°C° 0 mm 2 mps 743 mmHg 29%
17:00 +32°C° 0 mm 2 mps 742 mmHg 30%
18:00 +31°C° 0 mm 2 mps 742 mmHg 33%
19:00 +29°C° 0 mm 2 mps 743 mmHg 37%
20:00 +27°C° 0 mm 2 mps 743 mmHg 41%
21:00 +26°C° 0 mm 1 mps 743 mmHg 43%
22:00 +25°C° 0 mm 1 mps 743 mmHg 46%
23:00 +24°C° 0 mm 1 mps 743 mmHg 49%

Tomorrow, 12 August, Wednesday

Time Temperature Precipitation Wind Pressure Humidity
00:00 +23°C° 0 mm 1 mps 743 mmHg 50%
01:00 +23°C° 0 mm 1 mps 743 mmHg 52%
02:00 +22°C° 0 mm 1 mps 743 mmHg 54%
03:00 +22°C° 0 mm 1 mps 743 mmHg 55%
04:00 +21°C° 0 mm 1 mps 743 mmHg 55%
05:00 +21°C° 0 mm 1 mps 743 mmHg 56%
06:00 +24°C° 0 mm 1 mps 743 mmHg 50%
07:00 +26°C° 0 mm 1 mps 743 mmHg 43%
08:00 +29°C° 0 mm 1 mps 743 mmHg 37%
09:00 +30°C° 0 mm 1 mps 743 mmHg 34%
10:00 +32°C° 0 mm 2 mps 743 mmHg 32%
11:00 +35°C° 0 mm 2 mps 743 mmHg 29%
12:00 +35°C° 0 mm 2 mps 743 mmHg 29%
13:00 +34°C° 0 mm 1 mps 742 mmHg 29%
14:00 +34°C° 0 mm 1 mps 742 mmHg 29%
15:00 +34°C° 0 mm 1 mps 742 mmHg 30%
16:00 +34°C° 0 mm 2 mps 742 mmHg 31%
17:00 +34°C° 0 mm 2 mps 742 mmHg 32%
18:00 +31°C° 0 mm 2 mps 742 mmHg 37%
19:00 +29°C° 0 mm 2 mps 742 mmHg 42%
20:00 +27°C° 0 mm 2 mps 743 mmHg 46%
21:00 +26°C° 0.1 mm 2 mps 743 mmHg 52%
22:00 +25°C° 0.1 mm 2 mps 743 mmHg 57%
23:00 +23°C° 0.1 mm 1 mps 743 mmHg 63%

Day after tomorrow, 13 August, Thursday

Time Temperature Precipitation Wind Pressure Humidity
00:00 +23°C° 0.5 mm 1 mps 743 mmHg 67%
01:00 +22°C° 0.5 mm 1 mps 744 mmHg 72%
02:00 +22°C° 0.5 mm 1 mps 744 mmHg 77%
03:00 +21°C° 0.1 mm 1 mps 744 mmHg 79%
04:00 +21°C° 0.1 mm 1 mps 744 mmHg 81%
05:00 +21°C° 0.1 mm 1 mps 744 mmHg 83%
06:00 +21°C° 0 mm 2 mps 744 mmHg 80%
07:00 +23°C° 0 mm 2 mps 744 mmHg 77%
08:00 +23°C° 0 mm 2 mps 745 mmHg 73%
09:00 +26°C° 0 mm 2 mps 745 mmHg 64%
10:00 +28°C° 0 mm 2 mps 745 mmHg 55%
11:00 +30°C° 0 mm 2 mps 745 mmHg 46%
12:00 +31°C° 0.1 mm 3 mps 745 mmHg 44%
13:00 +31°C° 0.1 mm 3 mps 745 mmHg 42%
14:00 +33°C° 0.1 mm 3 mps 744 mmHg 39%
15:00 +31°C° 0 mm 3 mps 744 mmHg 44%
16:00 +29°C° 0 mm 3 mps 744 mmHg 49%
17:00 +28°C° 0 mm 3 mps 743 mmHg 53%
18:00 +27°C° 0 mm 2 mps 744 mmHg 61%
19:00 +25°C° 0 mm 2 mps 744 mmHg 68%
20:00 +23°C° 0 mm 2 mps 744 mmHg 75%
21:00 +21°C° 0 mm 2 mps 744 mmHg 80%
22:00 +21°C° 0 mm 2 mps 744 mmHg 85%
23:00 +20°C° 0 mm 2 mps 744 mmHg 90%

14 August, Friday

Time Temperature Precipitation Wind Pressure Humidity
00:00 +19°C° 0 mm 2 mps 744 mmHg 91%
01:00 +19°C° 0 mm 2 mps 744 mmHg 92%
02:00 +19°C° 0 mm 2 mps 744 mmHg 93%
03:00 +20°C° 0 mm 1 mps 744 mmHg 93%
04:00 +19°C° 0 mm 1 mps 744 mmHg 92%
05:00 +19°C° 0 mm 1 mps 744 mmHg 92%
06:00 +21°C° 0 mm 1 mps 744 mmHg 81%
07:00 +24°C° 0 mm 2 mps 744 mmHg 70%
08:00 +26°C° 0 mm 2 mps 744 mmHg 60%
09:00 +28°C° 0 mm 2 mps 744 mmHg 50%
10:00 +30°C° 0 mm 2 mps 744 mmHg 41%
11:00 +32°C° 0 mm 2 mps 744 mmHg 32%
12:00 +32°C° 0 mm 2 mps 744 mmHg 31%
13:00 +32°C° 0 mm 2 mps 743 mmHg 31%
14:00 +32°C° 0 mm 2 mps 743 mmHg 30%
15:00 +33°C° 0 mm 3 mps 743 mmHg 31%
16:00 +33°C° 0 mm 3 mps 743 mmHg 31%
17:00 +33°C° 0 mm 3 mps 742 mmHg 32%
18:00 +29°C° 0 mm 4 mps 742 mmHg 39%
19:00 +26°C° 0 mm 4 mps 743 mmHg 46%
20:00 +23°C° 0 mm 4 mps 743 mmHg 53%
21:00 +22°C° 0 mm 3 mps 743 mmHg 58%
22:00 +20°C° 0 mm 3 mps 743 mmHg 64%
23:00 +19°C° 0 mm 3 mps 743 mmHg 69%

15 August, Saturday

Time Temperature Precipitation Wind Pressure Humidity
00:00 +19°C° 0 mm 3 mps 743 mmHg 73%
01:00 +19°C° 0 mm 3 mps 743 mmHg 76%
02:00 +18°C° 0 mm 3 mps 743 mmHg 80%
03:00 +18°C° 0 mm 3 mps 743 mmHg 80%
04:00 +18°C° 0 mm 3 mps 743 mmHg 81%
05:00 +18°C° 0 mm 3 mps 742 mmHg 81%
06:00 +20°C° 0 mm 3 mps 743 mmHg 69%
07:00 +23°C° 0 mm 4 mps 743 mmHg 58%
08:00 +26°C° 0 mm 4 mps 743 mmHg 46%
09:00 +28°C° 0 mm 4 mps 743 mmHg 41%
10:00 +30°C° 0 mm 5 mps 743 mmHg 36%
11:00 +33°C° 0 mm 5 mps 743 mmHg 30%
12:00 +34°C° 0 mm 5 mps 743 mmHg 29%
13:00 +34°C° 0 mm 5 mps 742 mmHg 27%
14:00 +35°C° 0 mm 5 mps 742 mmHg 25%
15:00 +34°C° 0 mm 6 mps 742 mmHg 26%
16:00 +33°C° 0 mm 6 mps 741 mmHg 27%
17:00 +32°C° 0 mm 7 mps 741 mmHg 28%
18:00 +28°C° 0 mm 6 mps 741 mmHg 36%
19:00 +26°C° 0 mm 5 mps 741 mmHg 44%
20:00 +22°C° 0 mm 5 mps 741 mmHg 53%
21:00 +21°C° 0 mm 4 mps 741 mmHg 60%
22:00 +20°C° 0 mm 3 mps 741 mmHg 68%
23:00 +19°C° 0 mm 3 mps 741 mmHg 75%

16 August, Sunday

Time Temperature Precipitation Wind Pressure Humidity
00:00 +19°C° 0 mm 2 mps 742 mmHg 73%
01:00 +19°C° 0 mm 2 mps 742 mmHg 72%
02:00 +21°C° 0 mm 1 mps 742 mmHg 70%
03:00 +20°C° 0 mm 1 mps 741 mmHg 71%
04:00 +20°C° 0 mm 1 mps 741 mmHg 73%
05:00 +20°C° 0 mm 1 mps 741 mmHg 74%
06:00 +20°C° 0 mm 2 mps 741 mmHg 69%
07:00 +21°C° 0 mm 2 mps 741 mmHg 65%
08:00 +24°C° 0 mm 2 mps 741 mmHg 60%
09:00 +26°C° 0 mm 3 mps 741 mmHg 53%
10:00 +27°C° 0 mm 3 mps 742 mmHg 45%
11:00 +29°C° 0 mm 3 mps 742 mmHg 38%
12:00 +30°C° 0 mm 3 mps 741 mmHg 36%
13:00 +31°C° 0 mm 2 mps 741 mmHg 34%
14:00 +32°C° 0 mm 2 mps 741 mmHg 33%
15:00 +31°C° 0 mm 2 mps 740 mmHg 35%
16:00 +31°C° 0 mm 2 mps 740 mmHg 37%
17:00 +30°C° 0 mm 3 mps 740 mmHg 39%
18:00 +28°C° 0 mm 3 mps 740 mmHg 44%
19:00 +26°C° 0 mm 3 mps 740 mmHg 50%
20:00 +23°C° 0 mm 4 mps 740 mmHg 55%
21:00 +22°C° 0 mm 3 mps 740 mmHg 60%
22:00 +21°C° 0 mm 3 mps 741 mmHg 64%
23:00 +20°C° 0 mm 2 mps 741 mmHg 69%
Show more